Year,Month,Day,Hour,Minute,Value (Times are PST for temperature in C)
2006,10,09,00,00,5.90
2006,10,09,00,01,5.80
2006,10,09,00,02,5.80
2006,10,09,00,03,5.80
2006,10,09,00,04,5.80
2006,10,09,00,05,5.80
2006,10,09,00,06,5.80
2006,10,09,00,07,5.80
2006,10,09,00,08,5.80
2006,10,09,00,09,5.80
2006,10,09,00,10,5.80
2006,10,09,00,11,5.80
2006,10,09,00,12,5.80
2006,10,09,00,13,5.80
2006,10,09,00,14,5.80
2006,10,09,00,15,5.80
2006,10,09,00,16,5.80
2006,10,09,00,17,5.80
2006,10,09,00,18,5.80
2006,10,09,00,19,5.80
2006,10,09,00,20,5.80
2006,10,09,00,21,5.80
2006,10,09,00,22,5.80
2006,10,09,00,23,5.80
2006,10,09,00,24,5.80
2006,10,09,00,25,5.80
2006,10,09,00,26,5.70
2006,10,09,00,27,5.70
2006,10,09,00,28,5.70
2006,10,09,00,29,5.70
2006,10,09,00,30,5.70
2006,10,09,00,31,5.60
2006,10,09,00,32,5.60
2006,10,09,00,33,5.60
2006,10,09,00,34,5.60
2006,10,09,00,35,5.60
2006,10,09,00,36,5.60
2006,10,09,00,37,5.60
2006,10,09,00,38,5.50
2006,10,09,00,39,5.50
2006,10,09,00,40,5.50
2006,10,09,00,41,5.50
2006,10,09,00,42,5.50
2006,10,09,00,43,5.50
2006,10,09,00,44,5.50
2006,10,09,00,45,5.50
2006,10,09,00,46,5.50
2006,10,09,00,47,5.50
2006,10,09,00,48,5.50
2006,10,09,00,49,5.60
2006,10,09,00,50,5.60
2006,10,09,00,51,5.60
2006,10,09,00,52,5.60
2006,10,09,00,53,5.60
2006,10,09,00,54,5.60
2006,10,09,00,55,5.60
2006,10,09,00,56,5.60
2006,10,09,00,57,5.60
2006,10,09,00,58,5.50
2006,10,09,00,59,5.50
2006,10,09,01,00,5.50
2006,10,09,01,01,5.50
2006,10,09,01,02,5.50
2006,10,09,01,03,5.50
2006,10,09,01,04,5.50
2006,10,09,01,05,5.50
2006,10,09,01,06,5.50
2006,10,09,01,07,5.50
2006,10,09,01,08,5.40
2006,10,09,01,09,5.40
2006,10,09,01,10,5.40
2006,10,09,01,11,5.40
2006,10,09,01,12,5.30
2006,10,09,01,13,5.30
2006,10,09,01,14,5.30
2006,10,09,01,15,5.30
2006,10,09,01,16,5.30
2006,10,09,01,17,5.30
2006,10,09,01,18,5.20
2006,10,09,01,19,5.20
2006,10,09,01,20,5.20
2006,10,09,01,21,5.20
2006,10,09,01,22,5.20
2006,10,09,01,23,5.20
2006,10,09,01,24,5.20
2006,10,09,01,25,5.20
2006,10,09,01,26,5.30
2006,10,09,01,27,5.30
2006,10,09,01,28,5.30
2006,10,09,01,29,5.30
2006,10,09,01,30,5.30
2006,10,09,01,31,5.30
2006,10,09,01,32,5.30
2006,10,09,01,33,5.30
2006,10,09,01,34,5.30
2006,10,09,01,35,5.20
2006,10,09,01,36,5.20
2006,10,09,01,37,5.20
2006,10,09,01,38,5.20
2006,10,09,01,39,5.20
2006,10,09,01,40,5.20
2006,10,09,01,41,5.10
2006,10,09,01,42,5.10
2006,10,09,01,43,5.10
2006,10,09,01,44,5.10
2006,10,09,01,45,5.10
2006,10,09,01,46,5.10
2006,10,09,01,47,5.10
2006,10,09,01,48,5.10
2006,10,09,01,49,5.10
2006,10,09,01,50,5.10
2006,10,09,01,51,5.10
2006,10,09,01,52,5.20
2006,10,09,01,53,5.10
2006,10,09,01,54,5.10
2006,10,09,01,55,5.10
2006,10,09,01,56,5.10
2006,10,09,01,57,5.10
2006,10,09,01,58,5.10
2006,10,09,01,59,5.10
2006,10,09,02,00,5.00
2006,10,09,02,01,4.90
2006,10,09,02,02,4.90
2006,10,09,02,03,4.90
2006,10,09,02,04,4.90
2006,10,09,02,05,4.90
2006,10,09,02,06,4.90
2006,10,09,02,07,4.90
2006,10,09,02,08,4.90
2006,10,09,02,09,4.80
2006,10,09,02,10,4.80
2006,10,09,02,11,4.80
2006,10,09,02,12,4.80
2006,10,09,02,13,4.70
2006,10,09,02,14,4.70
2006,10,09,02,15,4.70
2006,10,09,02,16,4.70
2006,10,09,02,17,4.70
2006,10,09,02,18,4.60
2006,10,09,02,19,4.60
2006,10,09,02,20,4.60
2006,10,09,02,21,4.60
2006,10,09,02,22,4.60
2006,10,09,02,23,4.60
2006,10,09,02,24,4.60
2006,10,09,02,25,4.60
2006,10,09,02,26,4.60
2006,10,09,02,27,4.60
2006,10,09,02,28,4.60
2006,10,09,02,29,4.60
2006,10,09,02,30,4.60
2006,10,09,02,31,4.60
2006,10,09,02,32,4.60
2006,10,09,02,33,4.60
2006,10,09,02,34,4.60
2006,10,09,02,35,4.60
2006,10,09,02,36,4.60
2006,10,09,02,37,4.60
2006,10,09,02,38,4.70
2006,10,09,02,39,4.70
2006,10,09,02,40,4.70
2006,10,09,02,41,4.80
2006,10,09,02,42,4.80
2006,10,09,02,43,4.80
2006,10,09,02,44,4.90
2006,10,09,02,45,4.90
2006,10,09,02,46,4.90
2006,10,09,02,47,5.00
2006,10,09,02,48,5.10
2006,10,09,02,49,5.10
2006,10,09,02,50,5.10
2006,10,09,02,51,5.10
2006,10,09,02,52,5.10
2006,10,09,02,53,5.10
2006,10,09,02,54,5.10
2006,10,09,02,55,5.20
2006,10,09,02,56,5.20
2006,10,09,02,57,5.20
2006,10,09,02,58,5.20
2006,10,09,02,59,5.30
2006,10,09,03,00,5.40
2006,10,09,03,01,5.50
2006,10,09,03,02,5.50
2006,10,09,03,03,5.60
2006,10,09,03,04,5.60
2006,10,09,03,05,5.70
2006,10,09,03,06,5.80
2006,10,09,03,07,5.90
2006,10,09,03,08,6.00
2006,10,09,03,09,6.20
2006,10,09,03,10,6.30
2006,10,09,03,11,6.40
2006,10,09,03,12,6.50
2006,10,09,03,13,6.60
2006,10,09,03,14,6.70
2006,10,09,03,15,6.90
2006,10,09,03,16,7.00
2006,10,09,03,17,7.10
2006,10,09,03,18,7.20
2006,10,09,03,19,7.30
2006,10,09,03,20,7.30
2006,10,09,03,21,7.30
2006,10,09,03,22,7.30
2006,10,09,03,23,7.40
2006,10,09,03,24,7.40
2006,10,09,03,25,7.40
2006,10,09,03,26,7.50
2006,10,09,03,27,7.50
2006,10,09,03,28,7.50
2006,10,09,03,29,7.50
2006,10,09,03,30,7.50
2006,10,09,03,31,7.50
2006,10,09,03,32,7.50
2006,10,09,03,33,7.60
2006,10,09,03,34,7.60
2006,10,09,03,35,7.60
2006,10,09,03,36,7.60
2006,10,09,03,37,7.70
2006,10,09,03,38,7.70
2006,10,09,03,39,7.70
2006,10,09,03,40,7.80
2006,10,09,03,41,7.80
2006,10,09,03,42,7.80
2006,10,09,03,43,7.80
2006,10,09,03,44,7.90
2006,10,09,03,45,7.90
2006,10,09,03,46,7.90
2006,10,09,03,47,7.90
2006,10,09,03,48,8.00
2006,10,09,03,49,8.00
2006,10,09,03,50,8.00
2006,10,09,03,51,8.00
2006,10,09,03,52,8.00
2006,10,09,03,53,8.00
2006,10,09,03,54,8.00
2006,10,09,03,55,8.10
2006,10,09,03,56,8.10
2006,10,09,03,57,8.10
2006,10,09,03,58,8.10
2006,10,09,03,59,8.10
2006,10,09,04,00,8.20
2006,10,09,04,01,8.20
2006,10,09,04,02,8.20
2006,10,09,04,03,8.20
2006,10,09,04,04,8.20
2006,10,09,04,05,8.20
2006,10,09,04,06,8.20
2006,10,09,04,07,8.30
2006,10,09,04,08,8.30
2006,10,09,04,09,8.30
2006,10,09,04,10,8.40
2006,10,09,04,11,8.40
2006,10,09,04,12,8.40
2006,10,09,04,13,8.40
2006,10,09,04,14,8.40
2006,10,09,04,15,8.40
2006,10,09,04,16,8.40
2006,10,09,04,17,8.40
2006,10,09,04,18,8.40
2006,10,09,04,19,8.40
2006,10,09,04,20,8.40
2006,10,09,04,21,8.50
2006,10,09,04,22,8.50
2006,10,09,04,23,8.50
2006,10,09,04,24,8.50
2006,10,09,04,25,8.50
2006,10,09,04,26,8.60
2006,10,09,04,27,8.60
2006,10,09,04,28,8.60
2006,10,09,04,29,8.60
2006,10,09,04,30,8.60
2006,10,09,04,31,8.60
2006,10,09,04,32,8.70
2006,10,09,04,33,8.70
2006,10,09,04,34,8.70
2006,10,09,04,35,8.70
2006,10,09,04,36,8.70
2006,10,09,04,37,8.70
2006,10,09,04,38,8.70
2006,10,09,04,39,8.70
2006,10,09,04,40,8.70
2006,10,09,04,41,8.70
2006,10,09,04,42,8.70
2006,10,09,04,43,8.70
2006,10,09,04,44,8.70
2006,10,09,04,45,8.70
2006,10,09,04,46,8.70
2006,10,09,04,47,8.70
2006,10,09,04,48,8.70
2006,10,09,04,49,8.70
2006,10,09,04,50,8.70
2006,10,09,04,51,8.70
2006,10,09,04,52,8.70
2006,10,09,04,53,8.70
2006,10,09,04,54,8.70
2006,10,09,04,55,8.70
2006,10,09,04,56,8.70
2006,10,09,04,57,8.70
2006,10,09,04,58,8.70
2006,10,09,04,59,8.70
2006,10,09,05,00,8.70
2006,10,09,05,01,8.70
2006,10,09,05,02,8.70
2006,10,09,05,03,8.70
2006,10,09,05,04,8.70
2006,10,09,05,05,8.70
2006,10,09,05,06,8.70
2006,10,09,05,07,8.80
2006,10,09,05,08,8.80
2006,10,09,05,09,8.80
2006,10,09,05,10,8.80
2006,10,09,05,11,8.80
2006,10,09,05,12,8.80
2006,10,09,05,13,8.80
2006,10,09,05,14,8.80
2006,10,09,05,15,8.80
2006,10,09,05,16,8.80
2006,10,09,05,17,8.80
2006,10,09,05,18,8.80
2006,10,09,05,19,8.80
2006,10,09,05,20,8.80
2006,10,09,05,21,8.80
2006,10,09,05,22,8.80
2006,10,09,05,23,8.70
2006,10,09,05,24,8.70
2006,10,09,05,25,8.70
2006,10,09,05,26,8.70
2006,10,09,05,27,8.70
2006,10,09,05,28,8.70
2006,10,09,05,29,8.70
2006,10,09,05,30,8.70
2006,10,09,05,31,8.70
2006,10,09,05,32,8.70
2006,10,09,05,33,8.70
2006,10,09,05,34,8.70
2006,10,09,05,35,8.70
2006,10,09,05,36,8.70
2006,10,09,05,37,8.70
2006,10,09,05,38,8.70
2006,10,09,05,39,8.70
2006,10,09,05,40,8.70
2006,10,09,05,41,8.70
2006,10,09,05,42,8.80
2006,10,09,05,43,8.80
2006,10,09,05,44,8.80
2006,10,09,05,45,8.80
2006,10,09,05,46,8.80
2006,10,09,05,47,8.80
2006,10,09,05,48,8.80
2006,10,09,05,49,8.80
2006,10,09,05,50,8.70
2006,10,09,05,51,8.70
2006,10,09,05,52,8.70
2006,10,09,05,53,8.70
2006,10,09,05,54,8.70
2006,10,09,05,55,8.70
2006,10,09,05,56,8.70
2006,10,09,05,57,8.70
2006,10,09,05,58,8.70
2006,10,09,05,59,8.70
2006,10,09,06,00,8.70
2006,10,09,06,01,8.70
2006,10,09,06,02,8.70
2006,10,09,06,03,8.80
2006,10,09,06,04,8.80
2006,10,09,06,05,8.80
2006,10,09,06,06,8.70
2006,10,09,06,07,8.70
2006,10,09,06,08,8.70
2006,10,09,06,09,8.70
2006,10,09,06,10,8.70
2006,10,09,06,11,8.70
2006,10,09,06,12,8.70
2006,10,09,06,13,8.60
2006,10,09,06,14,8.50
2006,10,09,06,15,8.50
2006,10,09,06,16,8.50
2006,10,09,06,17,8.40
2006,10,09,06,18,8.40
2006,10,09,06,19,8.40
2006,10,09,06,20,8.30
2006,10,09,06,21,8.30
2006,10,09,06,22,8.20
2006,10,09,06,23,8.20
2006,10,09,06,24,8.10
2006,10,09,06,25,8.10
2006,10,09,06,26,8.00
2006,10,09,06,27,8.00
2006,10,09,06,28,7.90
2006,10,09,06,29,7.90
2006,10,09,06,30,7.90
2006,10,09,06,31,7.90
2006,10,09,06,32,8.00
2006,10,09,06,33,8.00
2006,10,09,06,34,8.00
2006,10,09,06,35,8.00
2006,10,09,06,36,8.00
2006,10,09,06,37,8.00
2006,10,09,06,38,7.90
2006,10,09,06,39,7.90
2006,10,09,06,40,7.90
2006,10,09,06,41,7.90
2006,10,09,06,42,7.90
2006,10,09,06,43,7.90
2006,10,09,06,44,7.90
2006,10,09,06,45,7.90
2006,10,09,06,46,7.90
2006,10,09,06,47,7.90
2006,10,09,06,48,8.00
2006,10,09,06,49,8.00
2006,10,09,06,50,8.00
2006,10,09,06,51,8.00
2006,10,09,06,52,8.00
2006,10,09,06,53,8.00
2006,10,09,06,54,8.00
2006,10,09,06,55,8.00
2006,10,09,06,56,7.90
2006,10,09,06,57,7.90
2006,10,09,06,58,7.90
2006,10,09,06,59,7.90
2006,10,09,07,00,7.90
2006,10,09,07,01,7.90
2006,10,09,07,02,7.90
2006,10,09,07,03,7.90
2006,10,09,07,04,7.90
2006,10,09,07,05,7.90
2006,10,09,07,06,7.90
2006,10,09,07,07,7.90
2006,10,09,07,08,7.90
2006,10,09,07,09,7.90
2006,10,09,07,10,7.90
2006,10,09,07,11,7.90
2006,10,09,07,12,7.90
2006,10,09,07,13,7.80
2006,10,09,07,14,7.80
2006,10,09,07,15,7.80
2006,10,09,07,16,7.80
2006,10,09,07,17,7.80
2006,10,09,07,18,7.80
2006,10,09,07,19,7.80
2006,10,09,07,20,7.80
2006,10,09,07,21,7.80
2006,10,09,07,22,7.80
2006,10,09,07,23,7.80
2006,10,09,07,24,7.80
2006,10,09,07,25,7.80
2006,10,09,07,26,7.80
2006,10,09,07,27,7.80
2006,10,09,07,28,7.80
2006,10,09,07,29,7.80
2006,10,09,07,30,7.80
2006,10,09,07,31,7.80
2006,10,09,07,32,7.80
2006,10,09,07,33,7.80
2006,10,09,07,34,7.80
2006,10,09,07,35,7.80
2006,10,09,07,36,7.90
2006,10,09,07,37,7.90
2006,10,09,07,38,7.90
2006,10,09,07,39,7.90
2006,10,09,07,40,7.90
2006,10,09,07,41,8.00
2006,10,09,07,42,8.00
2006,10,09,07,43,8.00
2006,10,09,07,44,8.00
2006,10,09,07,45,8.00
2006,10,09,07,46,8.00
2006,10,09,07,47,8.10
2006,10,09,07,48,8.10
2006,10,09,07,49,8.10
2006,10,09,07,50,8.10
2006,10,09,07,51,8.10
2006,10,09,07,52,8.10
2006,10,09,07,53,8.10
2006,10,09,07,54,8.10
2006,10,09,07,55,8.20
2006,10,09,07,56,8.20
2006,10,09,07,57,8.20
2006,10,09,07,58,8.20
2006,10,09,07,59,8.20
2006,10,09,08,00,8.20
2006,10,09,08,01,8.20
2006,10,09,08,02,8.20
2006,10,09,08,03,8.20
2006,10,09,08,04,8.20
2006,10,09,08,05,8.20
2006,10,09,08,06,8.20
2006,10,09,08,07,8.20
2006,10,09,08,08,8.20
2006,10,09,08,09,8.20
2006,10,09,08,10,8.20
2006,10,09,08,11,8.20
2006,10,09,08,12,8.20
2006,10,09,08,13,8.20
2006,10,09,08,14,8.20
2006,10,09,08,15,8.20
2006,10,09,08,16,8.20
2006,10,09,08,17,8.20
2006,10,09,08,18,8.20
2006,10,09,08,19,8.20
2006,10,09,08,20,8.20
2006,10,09,08,21,8.20
2006,10,09,08,22,8.20
2006,10,09,08,23,8.30
2006,10,09,08,24,8.30
2006,10,09,08,25,8.30
2006,10,09,08,26,8.30
2006,10,09,08,27,8.40
2006,10,09,08,28,8.40
2006,10,09,08,29,8.40
2006,10,09,08,30,8.50
2006,10,09,08,31,8.50
2006,10,09,08,32,8.50
2006,10,09,08,33,8.50
2006,10,09,08,34,8.60
2006,10,09,08,35,8.60
2006,10,09,08,36,8.60
2006,10,09,08,37,8.70
2006,10,09,08,38,8.70
2006,10,09,08,39,8.70
2006,10,09,08,40,8.70
2006,10,09,08,41,8.70
2006,10,09,08,42,8.70
2006,10,09,08,43,8.70
2006,10,09,08,44,8.70
2006,10,09,08,45,8.80
2006,10,09,08,46,8.80
2006,10,09,08,47,8.90
2006,10,09,08,48,8.90
2006,10,09,08,49,9.00
2006,10,09,08,50,9.00
2006,10,09,08,51,9.10
2006,10,09,08,52,9.10
2006,10,09,08,53,9.20
2006,10,09,08,54,9.20
2006,10,09,08,55,9.20
2006,10,09,08,56,9.30
2006,10,09,08,57,9.40
2006,10,09,08,58,9.40
2006,10,09,08,59,9.50
2006,10,09,09,00,9.60
2006,10,09,09,01,9.70
2006,10,09,09,02,9.80
2006,10,09,09,03,9.90
2006,10,09,09,04,10.00
2006,10,09,09,05,10.10
2006,10,09,09,06,10.20
2006,10,09,09,07,10.30
2006,10,09,09,08,10.40
2006,10,09,09,09,10.40
2006,10,09,09,10,10.50
2006,10,09,09,11,10.60
2006,10,09,09,12,10.70
2006,10,09,09,13,10.70
2006,10,09,09,14,10.80
2006,10,09,09,15,10.80
2006,10,09,09,16,10.80
2006,10,09,09,17,10.90
2006,10,09,09,18,10.90
2006,10,09,09,19,11.00
2006,10,09,09,20,11.10
2006,10,09,09,21,11.20
2006,10,09,09,22,11.30
2006,10,09,09,23,11.40
2006,10,09,09,24,11.40
2006,10,09,09,25,11.60
2006,10,09,09,26,11.60
2006,10,09,09,27,11.60
2006,10,09,09,28,11.70
2006,10,09,09,29,11.80
2006,10,09,09,30,11.80
2006,10,09,09,31,11.90
2006,10,09,09,32,12.00
2006,10,09,09,33,12.00
2006,10,09,09,34,12.00
2006,10,09,09,35,12.10
2006,10,09,09,36,12.10
2006,10,09,09,37,12.20
2006,10,09,09,38,12.20
2006,10,09,09,39,12.20
2006,10,09,09,40,12.30
2006,10,09,09,41,12.30
2006,10,09,09,42,12.30
2006,10,09,09,43,12.30
2006,10,09,09,44,12.30
2006,10,09,09,45,12.30
2006,10,09,09,46,12.40
2006,10,09,09,47,12.40
2006,10,09,09,48,12.50
2006,10,09,09,49,12.50
2006,10,09,09,50,12.60
2006,10,09,09,51,12.60
2006,10,09,09,52,12.60
2006,10,09,09,53,12.70
2006,10,09,09,54,12.70
2006,10,09,09,55,12.80
2006,10,09,09,56,12.80
2006,10,09,09,57,12.80
2006,10,09,09,58,12.80
2006,10,09,09,59,12.80
2006,10,09,10,00,12.80
2006,10,09,10,01,12.90
2006,10,09,10,02,12.90
2006,10,09,10,03,12.90
2006,10,09,10,04,13.00
2006,10,09,10,05,13.00
2006,10,09,10,06,13.10
2006,10,09,10,07,13.10
2006,10,09,10,08,13.20
2006,10,09,10,09,13.20
2006,10,09,10,10,13.20
2006,10,09,10,11,13.30
2006,10,09,10,12,13.30
2006,10,09,10,13,13.40
2006,10,09,10,14,13.40
2006,10,09,10,15,13.50
2006,10,09,10,16,13.50
2006,10,09,10,17,13.50
2006,10,09,10,18,13.50
2006,10,09,10,19,13.60
2006,10,09,10,20,13.60
2006,10,09,10,21,13.60
2006,10,09,10,22,13.60
2006,10,09,10,23,13.60
2006,10,09,10,24,13.60
2006,10,09,10,25,13.70
2006,10,09,10,26,13.70
2006,10,09,10,27,13.70
2006,10,09,10,28,13.70
2006,10,09,10,29,13.80
2006,10,09,10,30,13.80
2006,10,09,10,31,13.80
2006,10,09,10,32,13.90
2006,10,09,10,33,13.90
2006,10,09,10,34,13.90
2006,10,09,10,35,13.90
2006,10,09,10,36,13.90
2006,10,09,10,37,13.90
2006,10,09,10,38,13.90
2006,10,09,10,39,13.90
2006,10,09,10,40,14.00
2006,10,09,10,41,14.00
2006,10,09,10,42,14.00
2006,10,09,10,43,14.00
2006,10,09,10,44,14.10
2006,10,09,10,45,14.10
2006,10,09,10,46,14.10
2006,10,09,10,47,14.20
2006,10,09,10,48,14.20
2006,10,09,10,49,14.20
2006,10,09,10,50,14.20
2006,10,09,10,51,14.30
2006,10,09,10,52,14.30
2006,10,09,10,53,14.40
2006,10,09,10,54,14.40
2006,10,09,10,55,14.50
2006,10,09,10,56,14.50
2006,10,09,10,57,14.60
2006,10,09,10,58,14.60
2006,10,09,10,59,14.70
2006,10,09,11,00,14.70
2006,10,09,11,01,14.70
2006,10,09,11,02,14.70
2006,10,09,11,03,14.80
2006,10,09,11,04,14.80
2006,10,09,11,05,14.80
2006,10,09,11,06,14.80
2006,10,09,11,07,14.80
2006,10,09,11,08,14.80
2006,10,09,11,09,14.80
2006,10,09,11,10,14.80
2006,10,09,11,11,14.80
2006,10,09,11,12,14.80
2006,10,09,11,13,14.80
2006,10,09,11,14,14.80
2006,10,09,11,15,14.80
2006,10,09,11,16,14.80
2006,10,09,11,17,14.80
2006,10,09,11,18,14.80
2006,10,09,11,19,14.80
2006,10,09,11,20,14.80
2006,10,09,11,21,14.80
2006,10,09,11,22,14.80
2006,10,09,11,23,14.80
2006,10,09,11,24,14.80
2006,10,09,11,25,14.80
2006,10,09,11,26,14.80
2006,10,09,11,27,14.80
2006,10,09,11,28,14.80
2006,10,09,11,29,14.80
2006,10,09,11,30,14.90
2006,10,09,11,31,14.90
2006,10,09,11,32,14.90
2006,10,09,11,33,14.90
2006,10,09,11,34,14.90
2006,10,09,11,35,14.90
2006,10,09,11,36,14.90
2006,10,09,11,37,14.90
2006,10,09,11,38,15.00
2006,10,09,11,39,15.00
2006,10,09,11,40,15.00
2006,10,09,11,41,14.90
2006,10,09,11,42,14.90
2006,10,09,11,43,14.90
2006,10,09,11,44,14.90
2006,10,09,11,45,14.90
2006,10,09,11,46,15.00
2006,10,09,11,47,15.00
2006,10,09,11,48,15.00
2006,10,09,11,49,15.00
2006,10,09,11,50,15.00
2006,10,09,11,51,15.00
2006,10,09,11,52,15.00
2006,10,09,11,53,15.00
2006,10,09,11,54,15.10
2006,10,09,11,55,15.10
2006,10,09,11,56,15.10
2006,10,09,11,57,15.20
2006,10,09,11,58,15.20
2006,10,09,11,59,15.30
2006,10,09,12,00,15.30
2006,10,09,12,01,15.30
2006,10,09,12,02,15.30
2006,10,09,12,03,15.30
2006,10,09,12,04,15.30
2006,10,09,12,05,15.30
2006,10,09,12,06,15.30
2006,10,09,12,07,15.30
2006,10,09,12,08,15.30
2006,10,09,12,09,15.40
2006,10,09,12,10,15.40
2006,10,09,12,11,15.50
2006,10,09,12,12,15.50
2006,10,09,12,13,15.60
2006,10,09,12,14,15.70
2006,10,09,12,15,15.70
2006,10,09,12,16,15.80
2006,10,09,12,17,15.70
2006,10,09,12,18,15.70
2006,10,09,12,19,15.70
2006,10,09,12,20,15.70
2006,10,09,12,21,15.80
2006,10,09,12,22,15.80
2006,10,09,12,23,15.80
2006,10,09,12,24,15.80
2006,10,09,12,25,15.80
2006,10,09,12,26,15.80
2006,10,09,12,27,15.80
2006,10,09,12,28,15.70
2006,10,09,12,29,15.70
2006,10,09,12,30,15.80
2006,10,09,12,31,15.80
2006,10,09,12,32,15.80
2006,10,09,12,33,15.80
2006,10,09,12,34,15.80
2006,10,09,12,35,15.90
2006,10,09,12,36,16.00
2006,10,09,12,37,16.00
2006,10,09,12,38,15.90
2006,10,09,12,39,15.80
2006,10,09,12,40,15.80
2006,10,09,12,41,15.80
2006,10,09,12,42,15.80
2006,10,09,12,43,15.80
2006,10,09,12,44,15.80
2006,10,09,12,45,15.80
2006,10,09,12,46,15.80
2006,10,09,12,47,15.70
2006,10,09,12,48,15.70
2006,10,09,12,49,15.70
2006,10,09,12,50,15.80
2006,10,09,12,51,15.80
2006,10,09,12,52,15.80
2006,10,09,12,53,15.80
2006,10,09,12,54,15.80
2006,10,09,12,55,15.90
2006,10,09,12,56,15.90
2006,10,09,12,57,15.90
2006,10,09,12,58,15.90
2006,10,09,12,59,16.00
2006,10,09,13,00,16.10
2006,10,09,13,01,16.00
2006,10,09,13,02,15.90
2006,10,09,13,03,16.00
2006,10,09,13,04,16.10
2006,10,09,13,05,16.10
2006,10,09,13,06,16.10
2006,10,09,13,07,16.20
2006,10,09,13,08,16.20
2006,10,09,13,09,16.30
2006,10,09,13,10,16.30
2006,10,09,13,11,16.30
2006,10,09,13,12,16.40
2006,10,09,13,13,16.40
2006,10,09,13,14,16.40
2006,10,09,13,15,16.40
2006,10,09,13,16,16.40
2006,10,09,13,17,16.40
2006,10,09,13,18,16.50
2006,10,09,13,19,16.60
2006,10,09,13,20,16.60
2006,10,09,13,21,16.60
2006,10,09,13,22,16.50
2006,10,09,13,23,16.40
2006,10,09,13,24,16.40
2006,10,09,13,25,16.50
2006,10,09,13,26,16.60
2006,10,09,13,27,16.70
2006,10,09,13,28,16.70
2006,10,09,13,29,16.70
2006,10,09,13,30,16.70
2006,10,09,13,31,16.70
2006,10,09,13,32,16.70
2006,10,09,13,33,16.70
2006,10,09,13,34,16.70
2006,10,09,13,35,16.70
2006,10,09,13,36,16.70
2006,10,09,13,37,16.70
2006,10,09,13,38,16.70
2006,10,09,13,39,16.70
2006,10,09,13,40,16.70
2006,10,09,13,41,16.70
2006,10,09,13,42,16.70
2006,10,09,13,43,16.70
2006,10,09,13,44,16.70
2006,10,09,13,45,16.80
2006,10,09,13,46,16.80
2006,10,09,13,47,16.80
2006,10,09,13,48,16.90
2006,10,09,13,49,16.90
2006,10,09,13,50,16.80
2006,10,09,13,51,16.90
2006,10,09,13,52,16.90
2006,10,09,13,53,16.70
2006,10,09,13,54,16.70
2006,10,09,13,55,16.70
2006,10,09,13,56,16.80
2006,10,09,13,57,16.80
2006,10,09,13,58,16.80
2006,10,09,13,59,16.90
2006,10,09,14,00,16.90
2006,10,09,14,01,17.00
2006,10,09,14,02,17.10
2006,10,09,14,03,17.20
2006,10,09,14,04,17.20
2006,10,09,14,05,17.20
2006,10,09,14,06,17.30
2006,10,09,14,07,17.30
2006,10,09,14,08,17.30
2006,10,09,14,09,17.20
2006,10,09,14,10,17.20
2006,10,09,14,11,17.20
2006,10,09,14,12,17.30
2006,10,09,14,13,17.20
2006,10,09,14,14,17.20
2006,10,09,14,15,17.20
2006,10,09,14,16,17.20
2006,10,09,14,17,17.20
2006,10,09,14,18,17.30
2006,10,09,14,19,17.30
2006,10,09,14,20,17.30
2006,10,09,14,21,17.30
2006,10,09,14,22,17.30
2006,10,09,14,23,17.40
2006,10,09,14,24,17.40
2006,10,09,14,25,17.40
2006,10,09,14,26,17.40
2006,10,09,14,27,17.40
2006,10,09,14,28,17.40
2006,10,09,14,29,17.30
2006,10,09,14,30,17.30
2006,10,09,14,31,17.20
2006,10,09,14,32,17.20
2006,10,09,14,33,17.30
2006,10,09,14,34,17.30
2006,10,09,14,35,17.30
2006,10,09,14,36,17.30
2006,10,09,14,37,17.40
2006,10,09,14,38,17.40
2006,10,09,14,39,17.30
2006,10,09,14,40,17.30
2006,10,09,14,41,17.30
2006,10,09,14,42,17.30
2006,10,09,14,43,17.20
2006,10,09,14,44,17.20
2006,10,09,14,45,17.20
2006,10,09,14,46,17.30
2006,10,09,14,47,17.30
2006,10,09,14,48,17.30
2006,10,09,14,49,17.30
2006,10,09,14,50,17.40
2006,10,09,14,51,17.40
2006,10,09,14,52,17.50
2006,10,09,14,53,17.50
2006,10,09,14,54,17.50
2006,10,09,14,55,17.50
2006,10,09,14,56,17.50
2006,10,09,14,57,17.50
2006,10,09,14,58,17.50
2006,10,09,14,59,17.40
2006,10,09,15,00,17.40
2006,10,09,15,01,17.40
2006,10,09,15,02,17.40
2006,10,09,15,03,17.40
2006,10,09,15,04,17.40
2006,10,09,15,05,17.40
2006,10,09,15,06,17.40
2006,10,09,15,07,17.40
2006,10,09,15,08,17.40
2006,10,09,15,09,17.50
2006,10,09,15,10,17.50
2006,10,09,15,11,17.50
2006,10,09,15,12,17.60
2006,10,09,15,13,17.60
2006,10,09,15,14,17.60
2006,10,09,15,15,17.60
2006,10,09,15,16,17.50
2006,10,09,15,17,17.50
2006,10,09,15,18,17.50
2006,10,09,15,19,17.40
2006,10,09,15,20,17.40
2006,10,09,15,21,17.40
2006,10,09,15,22,17.40
2006,10,09,15,23,17.40
2006,10,09,15,24,17.40
2006,10,09,15,25,17.40
2006,10,09,15,26,17.50
2006,10,09,15,27,17.50
2006,10,09,15,28,17.60
2006,10,09,15,29,17.60
2006,10,09,15,30,17.60
2006,10,09,15,31,17.70
2006,10,09,15,32,17.70
2006,10,09,15,33,17.80
2006,10,09,15,34,17.80
2006,10,09,15,35,17.80
2006,10,09,15,36,17.80
2006,10,09,15,37,17.80
2006,10,09,15,38,17.80
2006,10,09,15,39,17.80
2006,10,09,15,40,17.80
2006,10,09,15,41,17.80
2006,10,09,15,42,17.80
2006,10,09,15,43,17.90
2006,10,09,15,44,17.90
2006,10,09,15,45,17.90
2006,10,09,15,46,17.90
2006,10,09,15,47,17.90
2006,10,09,15,48,17.90
2006,10,09,15,49,17.90
2006,10,09,15,50,17.90
2006,10,09,15,51,17.90
2006,10,09,15,52,17.90
2006,10,09,15,53,17.90
2006,10,09,15,54,17.90
2006,10,09,15,55,17.90
2006,10,09,15,56,17.90
2006,10,09,15,57,17.90
2006,10,09,15,58,17.90
2006,10,09,15,59,17.90
2006,10,09,16,00,17.90
2006,10,09,16,01,17.90
2006,10,09,16,02,17.90
2006,10,09,16,03,17.80
2006,10,09,16,04,17.80
2006,10,09,16,05,17.80
2006,10,09,16,06,17.70
2006,10,09,16,07,17.70
2006,10,09,16,08,17.70
2006,10,09,16,09,17.70
2006,10,09,16,10,17.70
2006,10,09,16,11,17.70
2006,10,09,16,12,17.80
2006,10,09,16,13,17.80
2006,10,09,16,14,17.70
2006,10,09,16,15,17.70
2006,10,09,16,16,17.70
2006,10,09,16,17,17.60
2006,10,09,16,18,17.60
2006,10,09,16,19,17.60
2006,10,09,16,20,17.70
2006,10,09,16,21,17.70
2006,10,09,16,22,17.70
2006,10,09,16,23,17.70
2006,10,09,16,24,17.70
2006,10,09,16,25,17.70
2006,10,09,16,26,17.70
2006,10,09,16,27,17.70
2006,10,09,16,28,17.70
2006,10,09,16,29,17.70
2006,10,09,16,30,17.70
2006,10,09,16,31,17.60
2006,10,09,16,32,17.60
2006,10,09,16,33,17.60
2006,10,09,16,34,17.60
2006,10,09,16,35,17.60
2006,10,09,16,36,17.60
2006,10,09,16,37,17.60
2006,10,09,16,38,17.60
2006,10,09,16,39,17.70
2006,10,09,16,40,17.70
2006,10,09,16,41,17.60
2006,10,09,16,42,17.60
2006,10,09,16,43,17.60
2006,10,09,16,44,17.60
2006,10,09,16,45,17.60
2006,10,09,16,46,17.60
2006,10,09,16,47,17.70
2006,10,09,16,48,17.60
2006,10,09,16,49,17.60
2006,10,09,16,50,17.60
2006,10,09,16,51,17.60
2006,10,09,16,52,17.60
2006,10,09,16,53,17.60
2006,10,09,16,54,17.60
2006,10,09,16,55,17.60
2006,10,09,16,56,17.60
2006,10,09,16,57,17.60
2006,10,09,16,58,17.60
2006,10,09,16,59,17.60
2006,10,09,17,00,17.60
2006,10,09,17,01,17.60
2006,10,09,17,02,17.60
2006,10,09,17,03,17.70
2006,10,09,17,04,17.70
2006,10,09,17,05,17.60
2006,10,09,17,06,17.70
2006,10,09,17,07,17.60
2006,10,09,17,08,17.50
2006,10,09,17,09,17.50
2006,10,09,17,10,17.50
2006,10,09,17,11,17.50
2006,10,09,17,12,17.40
2006,10,09,17,13,17.40
2006,10,09,17,14,17.40
2006,10,09,17,15,17.40
2006,10,09,17,16,17.40
2006,10,09,17,17,17.40
2006,10,09,17,18,17.40
2006,10,09,17,19,17.30
2006,10,09,17,20,17.20
2006,10,09,17,21,17.10
2006,10,09,17,22,17.00
2006,10,09,17,23,17.00
2006,10,09,17,24,17.00
2006,10,09,17,25,17.00
2006,10,09,17,26,17.00
2006,10,09,17,27,17.00
2006,10,09,17,28,17.00
2006,10,09,17,29,16.90
2006,10,09,17,30,16.90
2006,10,09,17,31,16.80
2006,10,09,17,32,16.70
2006,10,09,17,33,16.70
2006,10,09,17,34,16.60
2006,10,09,17,35,16.40
2006,10,09,17,36,16.40
2006,10,09,17,37,16.30
2006,10,09,17,38,16.30
2006,10,09,17,39,16.20
2006,10,09,17,40,16.20
2006,10,09,17,41,16.10
2006,10,09,17,42,16.10
2006,10,09,17,43,16.00